Date String (YYYY-MM-DD hh:mm:ss) UTC,Instrument flags,Ambient pressure (hPa),Sample flow (lpm),Bypass flow (lpm),Sample temperature (°C),Ambient temperature (°C),ASC tube jacket temperature (°C),LED temperature (°C),Box temperature (°C),Sample RH (%),Span deviation,Mass concentration (μg/m³),Mass concentration (μg/m³),Mass concentration (μg/m³)
DateTimeUTC,F1_M11,P_M11,Q1_M11,Q2_M11,T1_M11,T2_M11,T3_M11,T4_M11,T5_M11,U1_M11,ZSPAN_M11,X0_M11,X2_M11,X1_M11
2022-06-24 03:00:00,,0824.6,5.00,0.00,29.2,28.4,00.0,37.9,31.2,15.2,0000.0,0016.77,0005.21,0004.33
2022-06-24 03:01:00,,0824.7,5.00,0.00,29.2,27.8,00.0,37.8,31.1,15.4,0000.0,0017.12,0005.27,0004.34
2022-06-24 03:02:00,,0824.7,5.00,0.00,29.1,27.0,00.0,37.8,30.9,15.5,0000.0,0016.80,0005.29,0004.35
2022-06-24 03:03:00,,0824.8,4.99,0.00,29.0,26.8,00.0,37.7,30.8,15.7,0000.0,0016.81,0005.34,0004.38
2022-06-24 03:04:00,,0824.7,5.00,0.00,29.0,26.8,00.0,37.7,30.7,15.8,0000.0,0014.42,0005.27,0004.37
2022-06-24 03:05:00,,0824.8,4.99,0.00,29.0,26.9,00.0,37.7,30.7,15.6,0000.0,0013.81,0005.24,0004.36
2022-06-24 03:06:00,,0824.9,5.00,0.00,29.0,27.1,00.0,37.7,30.8,15.7,0000.0,0013.31,0005.29,0004.40
2022-06-24 03:07:00,,0824.8,4.99,0.00,29.0,27.3,00.0,37.7,30.8,15.8,0000.0,0012.64,0005.31,0004.45
2022-06-24 03:08:00,,0824.8,5.01,0.00,29.0,27.5,00.0,37.8,30.9,15.7,0000.0,0012.02,0005.32,0004.49
2022-06-24 03:09:00,,0824.8,5.00,0.00,29.0,27.6,00.0,37.8,30.9,14.8,0000.0,0011.87,0005.32,0004.51
2022-06-24 03:10:00,,0824.9,5.01,0.00,29.0,27.8,00.0,37.8,31.0,15.0,0000.0,0011.90,0005.38,0004.56
2022-06-24 03:11:00,,0824.8,5.00,0.00,29.0,27.9,00.0,37.8,31.0,15.4,0000.0,0012.74,0005.43,0004.60
2022-06-24 03:12:00,,0824.8,4.99,0.00,29.1,28.0,00.0,37.8,31.1,15.4,0000.0,0012.64,0005.41,0004.63
2022-06-24 03:13:00,,0824.8,5.00,0.00,29.1,28.1,00.0,37.8,31.1,15.6,0000.0,0012.51,0005.46,0004.65
2022-06-24 03:14:00,,0824.9,4.99,0.00,29.1,28.2,00.0,37.9,31.1,15.6,0000.0,0011.98,0005.50,0004.68
2022-06-24 03:15:00,,0824.9,5.00,0.00,29.2,28.3,00.0,37.9,31.2,15.5,0000.0,0011.99,0005.54,0004.70
2022-06-24 03:16:00,,0824.9,5.02,0.00,29.2,28.1,00.0,37.9,31.2,15.6,0000.0,0012.26,0005.51,0004.70
2022-06-24 03:17:00,,0824.9,5.01,0.00,29.2,27.2,00.0,37.8,30.9,15.8,0000.0,0012.54,0005.50,0004.72
2022-06-24 03:18:00,,0824.9,5.00,0.00,29.0,26.7,00.0,37.8,30.7,15.9,0000.0,0012.77,0005.54,0004.74
2022-06-24 03:19:00,,0824.9,5.00,0.00,29.0,26.7,00.0,37.7,30.7,16.0,0000.0,0012.95,0005.60,0004.75
2022-06-24 03:20:00,,0824.9,4.99,0.00,29.0,26.8,00.0,37.7,30.7,16.4,0000.0,0012.72,0005.62,0004.75
2022-06-24 03:21:00,,0824.9,5.00,0.00,28.9,26.9,00.0,37.7,30.7,16.3,0000.0,0012.17,0005.61,0004.73
2022-06-24 03:22:00,,0824.8,5.00,0.00,28.9,27.1,00.0,37.7,30.8,16.5,0000.0,0011.28,0005.58,0004.72
2022-06-24 03:23:00,,0824.9,5.00,0.00,28.9,27.3,00.0,37.7,30.8,16.4,0000.0,0010.64,0005.55,0004.71
2022-06-24 03:24:00,,0824.9,4.99,0.00,28.9,27.5,00.0,37.7,30.8,16.5,0000.0,0010.25,0005.50,0004.69
2022-06-24 03:25:00,,0824.9,5.00,0.00,29.0,27.6,00.0,37.8,30.9,16.6,0000.0,0010.18,0005.46,0004.66
2022-06-24 03:26:00,,0824.9,4.99,0.00,29.0,27.8,00.0,37.8,31.0,16.5,0000.0,0010.13,0005.42,0004.64
2022-06-24 03:27:00,,0824.9,5.00,0.00,29.0,27.9,00.0,37.8,31.0,16.5,0000.0,0009.51,0005.44,0004.62
2022-06-24 03:28:00,,0824.9,5.02,0.00,29.0,28.0,00.0,37.8,31.0,16.8,0000.0,0009.03,0005.41,0004.59
2022-06-24 03:29:00,,0824.9,5.01,0.00,29.1,28.1,00.0,37.8,31.1,17.0,0000.0,0008.96,0005.37,0004.55
2022-06-24 03:30:00,,0824.9,4.99,0.00,29.1,28.2,00.0,37.8,31.1,17.2,0000.0,0009.31,0005.34,0004.51
2022-06-24 03:31:00,,0824.9,4.99,0.00,29.2,28.3,00.0,37.9,31.2,17.3,0000.0,0009.89,0005.32,0004.46
2022-06-24 03:32:00,,0824.9,5.00,0.00,29.2,28.4,00.0,37.9,31.2,17.2,0000.0,0010.36,0005.28,0004.41
2022-06-24 03:33:00,,0824.9,5.00,0.00,29.2,28.2,00.0,37.9,31.2,17.2,0000.0,0010.31,0005.20,0004.35
2022-06-24 03:34:00,,0825.0,5.00,0.00,29.2,27.4,00.0,37.8,31.0,17.2,0000.0,0010.25,0005.13,0004.30
2022-06-24 03:35:00,,0824.9,4.99,0.00,29.1,26.8,00.0,37.8,30.8,17.3,0000.0,0010.14,0005.05,0004.24
2022-06-24 03:36:00,,0824.9,5.00,0.00,29.0,26.7,00.0,37.7,30.8,17.4,0000.0,0010.03,0004.97,0004.18
2022-06-24 03:37:00,,0824.9,5.00,0.00,29.0,26.8,00.0,37.7,30.7,17.4,0000.0,0010.24,0004.94,0004.12
2022-06-24 03:38:00,,0824.9,5.00,0.00,28.9,26.9,00.0,37.7,30.7,17.3,0000.0,0010.86,0004.91,0004.06
2022-06-24 03:39:00,,0824.9,5.00,0.00,28.9,27.1,00.0,37.7,30.8,17.3,0000.0,0011.27,0004.90,0004.01
2022-06-24 03:40:00,,0824.9,4.99,0.00,28.9,27.3,00.0,37.7,30.8,17.3,0000.0,0012.11,0004.85,0003.96
2022-06-24 03:41:00,,0824.9,5.00,0.00,28.9,27.4,00.0,37.7,30.8,17.3,0000.0,0012.04,0004.79,0003.91
2022-06-24 03:42:00,,0824.9,5.00,0.00,29.0,27.6,00.0,37.8,30.9,17.2,0000.0,0011.65,0004.69,0003.87
2022-06-24 03:43:00,,0824.9,4.99,0.00,29.0,27.7,00.0,37.8,30.9,17.1,0000.0,0011.30,0004.61,0003.83
2022-06-24 03:44:00,,0824.9,5.00,0.00,29.0,27.8,00.0,37.8,31.0,17.1,0000.0,0011.78,0004.59,0003.81
2022-06-24 03:45:00,,0824.9,5.00,0.00,29.0,28.0,00.0,37.8,31.0,17.1,0000.0,0012.18,0004.61,0003.79
2022-06-24 03:46:00,,0824.9,5.01,0.00,29.1,28.1,00.0,37.8,31.0,17.0,0000.0,0012.79,0004.59,0003.78
2022-06-24 03:47:00,,0824.8,5.00,0.00,29.1,28.1,00.0,37.8,31.1,17.1,0000.0,0012.90,0004.56,0003.76
2022-06-24 03:48:00,,0824.8,4.99,0.00,29.1,28.2,00.0,37.9,31.1,17.0,0000.0,0012.63,0004.51,0003.73
2022-06-24 03:49:00,,0824.9,5.00,0.00,29.2,28.3,00.0,37.9,31.2,17.0,0000.0,0012.11,0004.48,0003.72
2022-06-24 03:50:00,,0824.9,5.01,0.00,29.2,28.4,00.0,37.9,31.2,16.9,0000.0,0011.69,0004.42,0003.71
2022-06-24 03:51:00,,0824.9,5.00,0.00,29.2,28.4,00.0,37.9,31.2,16.9,0000.0,0011.09,0004.42,0003.72
2022-06-24 03:52:00,,0824.9,4.99,0.00,29.2,28.0,00.0,37.9,31.1,16.8,0000.0,0011.25,0004.42,0003.72
2022-06-24 03:53:00,,0824.9,4.99,0.00,29.2,26.9,00.0,37.8,30.9,16.8,0000.0,0012.25,0004.41,0003.72
2022-06-24 03:54:00,,0824.9,5.00,0.00,29.1,26.6,00.0,37.8,30.8,16.9,0000.0,0012.66,0004.44,0003.73
2022-06-24 03:55:00,,0824.9,5.01,0.00,29.0,26.6,00.0,37.8,30.7,16.9,0000.0,0012.27,0004.44,0003.74
2022-06-24 03:56:00,,0824.9,5.00,0.00,29.0,26.7,00.0,37.8,30.7,16.9,0000.0,0011.97,0004.48,0003.75
2022-06-24 03:57:00,,0824.9,5.00,0.00,29.0,26.9,00.0,37.8,30.7,16.9,0000.0,0011.51,0004.47,0003.76
2022-06-24 03:58:00,,0824.9,5.00,0.00,28.9,27.1,00.0,37.8,30.8,16.9,0000.0,0011.82,0004.50,0003.78
2022-06-24 03:59:00,,0824.9,5.00,0.00,28.9,27.3,00.0,37.8,30.8,16.8,0000.0,0012.04,0004.53,0003.80
